GAOFEN 7 (44703 NORAD) Tracking and Keplerian Element Data

This shows tracking and keplerian element data for the satellite.

Feedback or suggestion? Click here.




ElementValue
Catalog44703
NameGAOFEN 7
Epoch Orbit453
Epoch Day336.91317093
Epoch Year2019
RAAN49.5702
Inclination97.4928
Eccentricity0.0010755
Argument of Perigee147.0938
Mean Anonmoly345.477
Mean Motion15.21189916
Decay Rate-0.00013519
L11 44703U 19072A 19336.91317093 -.00013519 00000-0 -60381-3 0 9994
L22 44703 97.4928 49.5702 0010755 147.0938 345.4770 15.21189916 4531

Live tracking and technical data element details for GAOFEN 7 (NORAD 44703). GAOFEN 7 can be tracked NOW for your location showing map with azimuth and elevation plus other details from your city location.

Track the satellite on the map from your city or location and see movement details for azimuth, elevation, latitude, longitude, range, height, and movement on the map or in text.







IsCatalogInMostPopularTable: catalog: 44703, numindb: 10
Update: records affected: 1



GetName: 44703 GAOFEN 7

Hit Count: updated at: Thu, 05 Dec 2019 18:12:52 GMT